Flag for Germany Weather past 2 weeks in Augsburg, Bavaria, Germany

Now
53 °F

Overcast.


Feels Like: 53 °F
Forecast: 45 / 61 °F
Wind: 1 mph from Southeast

Location: Augsburg

Current Time: Aug 23, 2014 at 4:43:22 AM

Latest Report: Aug 23, 2014 at 4:00 AM


Visibility: 11 mi

Pressure: 30.00 "Hg

Humidity: 92%

Dew point: 51 °F

Location of AugsburgLocation

Historic Weather in Augsburg — Graph

°F

Augsburg temperature yesterday

Maximum temperature yesterday: 68 °F (at 5:00 PM)
Minimum temperature yesterday: 47 °F (at 6:00 AM)
Average temperature yesterday: 57 °F

Past Weeks' High & Low Weather Summary

 TemperatureHumidityPressure
High82 °F (Aug 10, 4:00 PM)100% (Aug 8, 3:00 AM)30.17 "Hg (Aug 8, 3:00 AM)
Low46 °F (Aug 17, 6:00 AM)42% (Aug 8, 4:00 PM)29.64 "Hg (Aug 13, 3:00 PM)
Average60 °F77%29.95 "Hg
* Reported Aug 8 3:00 AM — Aug 23 3:00 AM, Augsburg, Weather by CustomWeather, © 2014

Note: Actual official high and low records may vary slightly from our data, if they occured in-between our weather recording intervals... More about our weather records

Advertising

Augsburg weather history for previous 24 hours

 ConditionsComfort  
Time TempWeatherWind HumidityBarometerVisibility
3:00 AM
Aug 23
53 °FOvercast.3 mph89%30.00 "Hg12 mi
2:00 AM50 °FOvercast.2 mph93%30.01 "Hg14 mi
1:00 AM49 °FPassing clouds.1 mph94%30.03 "Hg17 mi
12:00 AM49 °FPassing clouds.2 mph93%30.02 "Hg19 mi
11:00 PM
Aug 22
50 °FPassing clouds.1 mph92%30.01 "Hg19 mi
10:00 PM52 °FClear.1 mph92%30.01 "Hg18 mi
9:00 PM56 °FPassing clouds.1 mph82%29.98 "Hg5 mi
8:00 PM64 °FPassing clouds.2 mph57%29.94 "Hg28 mi
7:00 PM67 °FPartly sunny.3 mph48%29.92 "Hg34 mi
6:00 PM68 °FPartly sunny.2 mph44%29.93 "Hg34 mi
5:00 PM68 °FScattered clouds.3 mph46%29.93 "Hg22 mi
4:00 PM67 °FPartly sunny.3 mph44%29.94 "Hg25 mi
3:00 PM67 °FOvercast.5 mph48%29.95 "Hg22 mi
2:00 PM66 °FPartly sunny.5 mph51%29.97 "Hg22 mi
1:00 PM64 °FOvercast.2 mph56%29.99 "Hg15 mi
12:00 PM62 °FOvercast.2 mph55%30.01 "Hg22 mi
11:00 AM60 °FOvercast.1 mph60%30.01 "Hg18 mi
10:00 AM56 °FOvercast.1 mph73%30.02 "Hg16 mi
9:00 AM53 °FOvercast.2 mph83%30.03 "Hg14 mi
8:00 AM50 °FOvercast.1 mph91%30.02 "Hg11 mi
7:00 AM47 °FOvercast.1 mph97%30.04 "Hg7 mi
6:00 AM47 °FOvercast.1 mph96%30.03 "Hg9 mi
4:00 AM47 °FPassing clouds.1 mph97%30.05 "Hg11 mi
Weather by CustomWeather, © 2014

See weather overviewHow to use our weather pages